This demonstration page uses our WeatherBlox Daily Observations layout. Learn more.

Left ArrowRight Arrow

44.8408, -93.29828

Hourly Observations for September 26, 2022

Temp ( °F °C ) Dew Point ( °F °C ) Humidity (%) Winds ( mph kmh ) Pressure ( in mb ) Visibility ( mi km ) Precip ( " mm )
12:53 am 00:53 Clear 55 12.8 35 1.7 47 47 NNW 17 28 29.96 1015 10 16 0.00 0.00
1:53 am 01:53 Clear 53 11.7 36 2.2 52 52 NW 15 24 29.97 1015 10 16 0.00 0.00
2:53 am 02:53 Clear 52 11.1 36 2.2 54 54 NNW 12 19 29.97 1015 10 16 0.00 0.00
3:53 am 03:53 Clear 50 10 37 2.8 61 61 NW 14 22 29.98 1015 10 16 0.00 0.00
4:53 am 04:53 Clear 49 9.4 37 2.8 63 63 NW 10 17 29.99 1016 10 16 0.00 0.00
5:53 am 05:53 Clear 48 8.9 37 2.8 66 66 NW 10 17 30.00 1016 10 16 0.00 0.00
6:53 am 06:53 Mostly Clear 47 8.3 37 2.8 68 68 NW 12 19 30.01 1016 10 16 0.00 0.00
7:53 am 07:53 Mostly Cloudy 50 10 38 3.3 63 63 NW 13 20 30.02 1017 10 16 0.00 0.00
8:53 am 08:53 Partly Cloudy 52 11.1 37 2.8 57 57 NNW 15 24 30.04 1017 10 16 0.00 0.00
9:53 am 09:53 Partly Cloudy 55 12.8 35 1.7 47 47 NNW 24 39 30.05 1018 10 16 0.00 0.00
10:53 am 10:53 Mostly Cloudy 57 13.9 36 2.2 45 45 NNW 18 30 30.06 1018 10 16 0.00 0.00
11:53 am 11:53 Mostly Cloudy 58 14.4 33 0.6 39 39 NW 21 33 30.05 1018 10 16 0.00 0.00
12:53 pm 12:53 Mostly Cloudy 59 15 33 0.6 37 37 NW 20 31 30.04 1017 10 16 0.00 0.00
1:53 pm 13:53 Mostly Cloudy 61 16.1 33 0.6 35 35 NNW 21 33 30.04 1017 10 16 0.00 0.00
2:53 pm 14:53 Mostly Cloudy 63 17.2 30 -1.1 29 29 NNW 20 31 30.03 1017 10 16 0.00 0.00
3:53 pm 15:53 Mostly Cloudy 64 17.8 32 0 30 30 NW 14 22 30.03 1017 10 16 0.00 0.00
4:53 pm 16:53 Mostly Cloudy 64 17.8 32 0 30 30 NW 18 30 30.03 1017 10 16 0.00 0.00
5:53 pm 17:53 Mostly Sunny 62 16.7 31 -0.6 31 31 NNW 13 20 30.03 1017 10 16 0.00 0.00
6:53 pm 18:53 Mostly Sunny 60 15.6 33 0.6 36 36 NNW 15 24 30.03 1017 10 16 0.00 0.00
7:53 pm 19:53 Mostly Clear 57 13.9 34 1.1 42 42 NW 7 11 30.04 1017 10 16 0.00 0.00
8:53 pm 20:53 Mostly Clear 53 11.7 36 2.2 52 52 WNW 6 9 30.04 1017 10 16 0.00 0.00
9:53 pm 21:53 Mostly Clear 53 11.7 38 3.3 56 56 NNW 6 9 30.06 1018 10 16 0.00 0.00
10:53 pm 22:53 Clear 52 11.1 36 2.2 54 54 NNW 6 9 30.08 1019 10 16 0.00 0.00
11:04 pm 23:04 Clear 52 11.1 37 2.8 57 57 NNW 5 7 30.09 1019 2 3 0.00 0.00
11:11 pm 23:11 Clear 52 11.1 36 2.2 54 54 NNW 5 7 30.09 1019 10 16 0.00 0.00
11:53 pm 23:53 Clear 51 10.6 36 2.2 56 56 Calm 30.08 1019 10 16 0.00 0.00

Powered by AerisWeather